Location: Cz?stochówka
(50.8142°N, 19.0915°E)
Time: 14:38:14
(UTC+00:00)

Cosmos 1633 Rocket - Pass Details

Date: 13 January 2026
Orbit: 600 x 616 km, 82.5° (Epoch: 17 February)

Event Time Altitude Azimuth Distance (km) Brightness Sun altitude
Rises 05:13:04 0° 174° (S) 2,862 6.8 -13.3°
Reaches altitude 10° 05:15:19 10° 169° (S) 1,960 6.0 -13.0°
Maximum altitude 05:19:30 50° 95° (E) 779 4.0 -12.4°
Drops below altitude 10° 05:23:43 10° 20° (NNE) 1,966 5.6 -11.7°
Sets 05:25:59 0° 15° (NNE) 2,872 6.4 -11.4°
